PATHFINDER 1

Last updated on Tue Jul 08 2025 00:02:29 GMT+0000 (Coordinated Universal Time)

1 41787U 16059E 25188.56244793 .00000491 00000+0 95499-4 0 9995 2 41787 97.8125 198.6748 0027768 222.6682 137.2367 14.66960227469171
UTC large
Height (km)
Speed (km/s)
/
Latitude / Longitude
Inclination (degrees)
Orbital Period (minutes)
Azimuth
Elevation
Range (km)
Doppler Factor

Next 0 passes for location: London (51.5072 / 0.1276)

Sorry there are no passes over London.